EHI
0 0 0 0 0 0 0 0 0 0 0 0 0 0 0 0 0 0 0 0 0 0 0 0 0 0 0 0 0 0 2 6 18 45 70 72 60 49 41 29 15 4 1 0
0 0 0 0 0 0 0 0 0 0 0 0 0 0 0 0 0 0 0 0 0 0 0 0 0 0 0 0 0 0 1 3 14 38 60 57 40 29 24 18 9 2 0 0
0 0 0 0 0 0 0 0 0 0 0 0 0 0 0 0 0 0 0 0 0 0 0 0 0 0 0 0 0 0 0 2 12 32 44 34 16 8 6 5 3 0 0 0
0 0 0 0 0 0 0 0 0 0 0 0 0 0 0 0 0 0 0 0 0 0 0 0 0 0 0 0 0 0 0 3 14 28 30 17 5 0 0 0 0 0 0 0
0 0 0 0 0 0 0 0 0 0 0 0 0 0 0 0 0 0 0 0 0 0 0 0 0 0 0 0 0 0 0 4 13 20 18 9 3 0 0 0 0 0 0 0
0 0 0 0 0 0 0 0 0 0 0 0 0 0 0 0 0 0 0 0 0 0 0 0 0 0 0 0 0 0 0 3 7 10 8 4 1 0 0 0 0 0 0 0
0 0 0 0 0 0 0 0 0 0 0 0 0 0 0 0 0 0 0 0 0 0 0 0 0 0 0 0 0 0 0 1 2 3 2 1 0 0 0 0 0 0 0 0
0 0 0 0 0 0 0 0 0 0 0 0 0 0 0 0 0 0 0 0 0 0 0 0 0 0 0 0 0 0 0 0 0 0 0 0 0 0 0 0 0 0 0 0
0 0 0 0 0 0 0 0 0 0 0 0 0 0 0 0 0 0 0 0 0 0 0 0 0 0 0 0 0 0 0 0 0 0 0 0 0 0 0 0 0 0 0 0
0 0 0 0 0 0 0 0 0 0 0 0 0 0 0 0 0 0 0 0 0 0 0 0 0 0 0 0 0 0 0 0 0 0 0 0 0 0 0 0 0 0 0 0
0 0 0 0 0 0 0 0 0 0 0 0 0 0 0 0 0 0 0 0 0 0 0 0 0 0 0 0 0 0 0 0 0 0 0 0 0 0 0 0 0 0 0 0
0 0 0 0 0 0 0 0 0 0 0 0 0 0 0 0 0 0 0 0 0 0 0 0 0 0 0 0 0 0 0 0 0 0 0 0 0 0 0 0 0 0 0 0
0 0 0 0 0 0 0 0 0 0 0 0 0 0 0 0 0 0 0 0 0 0 0 0 0 0 0 0 0 0 0 0 0 0 0 0 0 0 0 0 0 0 0 0
0 0 0 0 0 0 0 0 0 0 0 0 0 0 0 0 0 0 0 0 0 0 0 0 0 0 0 0 0 0 0 0 0 0 0 0 0 0 0 0 0 0 0 0
0 0 0 0 0 0 0 0 0 0 0 0 0 0 0 0 0 0 0 0 0 0 0 0 0 0 0 0 0 0 0 0 0 0 0 0 0 0 0 0 0 0 0 0
0 0 0 0 0 0 0 0 0 0 0 0 0 0 0 0 0 0 0 0 0 0 0 0 0 0 0 0 0 0 0 0 0 0 0 0 0 0 0 0 0 0 0 0
0 0 0 0 0 0 0 0 0 0 0 0 0 0 0 0 0 0 0 0 0 0 0 0 0 0 0 0 0 0 0 0 0 0 0 0 0 0 0 0 0 0 0 0
0 0 0 0 0 0 0 0 0 0 0 0 0 0 0 0 0 0 0 0 0 0 0 0 0 0 0 0 0 0 0 0 0 0 0 0 0 0 0 0 0 0 0 0
0 0 0 0 0 0 0 0 0 0 0 0 0 0 0 0 0 0 0 0 0 0 0 0 0 0 0 0 0 0 0 0 0 0 0 0 0 0 0 0 0 0 0 0
0 0 0 0 0 0 0 0 0 0 0 0 0 0 0 0 0 0 0 0 0 0 0 0 0 0 0 0 0 0 0 0 0 0 0 0 0 0 0 0 0 0 0 0
0 0 0 0 0 0 0 0 0 0 0 0 0 0 0 0 0 0 0 0 0 0 0 0 0 0 0 0 0 0 0 0 0 0 0 0 0 0 0 0 0 0 0 0
0 0 0 0 0 0 0 0 0 0 0 0 0 0 0 0 0 0 0 0 0 0 0 0 0 0 0 0 0 0 0 0 0 0 0 0 0 0 0 0 0 0 0 0
0 0 0 0 0 0 0 0 0 0 0 0 0 0 0 0 0 0 0 0 0 0 0 0 0 0 0 0 0 0 0 0 0 0 0 0 0 0 0 0 0 0 0 0
0 0 0 0 0 0 0 0 0 0 0 0 0 0 0 0 0 0 0 0 0 0 0 0 0 0 0 0 0 0 0 0 0 0 0 0 0 0 0 0 0 0 0 0
0 0 0 0 0 0 0 0 0 0 0 0 0 0 0 0 0 0 0 0 0 0 0 0 0 0 0 0 0 0 0 0 0 0 0 0 0 0 0 0 0 0 0 0
0 0 0 0 0 0 0 0 0 0 0 0 0 0 0 0 0 0 0 0 0 0 0 0 0 0 0 0 0 0 0 0 0 0 0 0 0 0 0 0 0 0 0 0
Wind_Speed
7 5 8 10 13 12 8 7 8 8 8 6 10 14 13 13 14 14 13 13 13 13 11 10 10 9 9 9 9 9 10 11 9 7 8 8 6 4 4 4 7 8 9 9
5 8 10 8 8 9 9 9 9 9 7 9 12 19 16 19 20 18 16 15 14 14 13 12 11 10 10 10 9 9 9 10 10 8 8 6 5 4 4 4 5 7 9 9
7 2 6 9 6 6 8 8 8 9 11 9 11 15 13 14 18 17 16 16 14 14 13 12 11 12 11 11 10 8 9 9 10 10 8 7 6 5 3 4 4 6 8 8
7 3 2 5 7 8 7 4 5 7 5 5 5 10 7 7 7 9 10 11 11 12 11 10 10 10 10 11 10 10 9 9 10 12 13 13 10 7 6 5 5 6 7 8
7 6 6 7 7 7 2 5 3 5 6 7 5 8 13 8 10 9 9 10 9 8 8 7 7 8 8 7 8 9 9 9 9 12 14 13 9 6 8 8 9 8 7 7
4 3 4 6 5 5 1 0 5 5 3 7 8 10 12 3 4 2 2 4 5 5 4 4 4 4 5 6 6 6 8 8 9 11 13 12 12 13 14 13 11 8 6 6
6 6 5 3 4 4 4 2 3 3 5 9 9 9 11 5 3 2 3 2 2 2 2 3 3 3 4 5 5 5 7 7 9 11 12 11 12 15 16 15 13 12 9 8
7 7 12 8 7 6 7 5 3 3 4 4 4 9 8 6 5 5 4 3 3 4 3 3 4 4 4 5 5 6 7 7 9 10 10 10 12 11 10 11 11 11 9 8
6 3 9 9 8 5 7 6 4 4 5 6 8 8 9 10 8 6 5 5 6 5 4 3 3 4 4 5 5 6 7 8 9 10 10 12 12 11 11 11 10 9 9 10
2 3 6 6 6 6 5 4 3 3 3 7 9 8 6 4 6 4 2 3 5 4 3 2 2 3 4 5 4 4 7 8 9 10 11 10 11 11 12 12 12 12 12 11
2 2 4 5 8 10 8 4 4 4 4 4 7 7 4 6 6 6 6 5 4 2 2 1 2 2 3 4 3 2 5 8 10 11 12 12 11 12 12 12 12 12 12 12
5 2 3 6 7 9 9 8 7 4 5 6 7 10 5 5 4 6 8 8 7 5 3 1 2 2 2 3 1 2 5 9 11 12 13 12 12 12 13 13 12 12 12 11
7 4 3 4 5 6 5 9 11 7 5 6 9 14 5 8 11 10 11 11 10 8 6 3 1 0 0 0 0 3 8 11 13 14 13 13 12 13 14 14 13 12 12 11
6 4 5 2 1 2 5 7 9 9 9 11 16 23 21 20 20 16 13 12 10 9 7 4 2 2 2 2 3 7 10 12 13 13 13 12 12 13 14 14 12 12 11 11
3 3 6 9 11 9 11 12 12 15 16 16 19 24 27 22 18 15 12 11 10 9 7 4 3 4 5 6 7 9 10 11 11 12 12 12 12 13 14 13 12 12 11 11
3 3 4 8 12 13 16 15 15 15 16 18 21 24 17 15 13 11 10 9 9 6 3 2 5 6 7 8 9 10 10 9 10 11 12 13 14 14 14 13 13 12 11 9
5 4 3 4 6 8 9 7 7 7 9 11 13 13 15 15 12 9 9 8 6 4 1 6 7 7 7 8 9 10 9 10 11 12 13 13 14 15 14 14 13 11 9 8
5 4 2 4 6 4 2 5 4 6 10 9 10 12 12 10 4 6 9 8 5 2 5 7 8 8 9 9 9 10 10 11 12 12 13 13 14 14 13 12 11 9 7 6
6 3 2 3 5 8 4 2 2 4 6 3 6 10 11 9 2 6 12 11 9 8 9 9 9 10 10 10 10 12 12 12 13 13 13 13 13 14 13 11 9 7 6 5
7 5 3 3 4 5 1 2 2 2 4 1 4 7 8 8 3 5 9 10 10 11 10 10 11 11 11 11 11 13 13 13 13 13 13 12 12 12 11 10 8 6 5 4
5 6 7 6 5 7 3 1 1 3 4 4 3 4 4 4 3 4 7 9 10 10 11 11 11 11 10 11 12 13 13 13 12 12 13 12 11 11 10 8 6 5 4 3
7 6 6 5 6 7 1 1 2 3 3 3 2 2 4 6 6 7 8 9 9 10 11 11 11 11 10 10 12 14 13 12 12 13 13 12 10 9 8 7 5 4 3 3
7 7 5 6 7 4 1 0 1 3 3 3 2 3 6 7 7 8 8 8 9 10 10 10 11 13 11 10 10 14 12 11 12 13 12 11 10 8 6 6 5 3 3 3
4 4 2 4 6 4 1 3 4 4 3 3 2 4 6 8 8 8 8 8 9 9 9 10 11 13 12 10 10 11 11 10 12 12 10 8 8 6 5 4 4 3 4 4
2 3 3 5 6 2 3 3 3 4 4 4 5 6 8 10 9 9 8 8 8 8 8 9 11 13 13 11 11 10 9 11 12 10 8 7 6 5 5 4 3 4 4 3
5 5 4 3 1 2 2 3 4 4 5 5 7 8 8 8 10 10 9 8 8 9 10 10 11 12 12 11 10 9 8 9 10 8 6 5 4 4 4 3 3 3 2 2
Wind_Direction
172 190 202 203 213 249 306 312 298 298 322 311 276 274 269 264 259 254 246 243 244 246 247 246 243 244 242 233 220 206 185 181 180 174 172 174 179 165 145 146 145 139 135 133
163 228 227 230 219 237 270 280 282 290 299 299 285 278 270 256 249 244 243 242 241 243 241 239 237 235 238 241 231 215 199 183 181 177 170 160 143 118 100 105 112 123 127 129
192 184 225 230 225 234 249 257 272 290 317 293 281 282 257 248 233 233 235 238 240 242 243 242 237 233 230 233 233 224 210 193 180 163 140 118 95 81 86 98 99 106 119 125
226 221 193 210 222 223 252 262 274 291 295 289 311 295 274 274 265 229 219 222 231 236 238 239 240 240 233 228 224 222 212 198 177 159 153 157 163 160 159 139 122 116 120 127
209 211 203 219 229 221 242 35 339 297 291 291 250 258 274 224 243 236 222 216 222 228 231 236 238 241 244 239 226 214 206 195 172 162 159 163 160 136 128 127 129 126 128 131
219 176 212 225 234 243 196 15 271 252 270 265 222 221 274 243 247 257 233 216 216 225 233 245 255 257 254 251 240 213 194 183 164 158 158 163 156 145 145 147 146 141 140 136
221 214 204 217 190 194 188 194 249 209 219 247 234 229 252 266 296 296 286 273 295 304 303 300 295 289 277 261 237 208 187 173 159 155 159 163 154 152 156 155 153 150 150 146
192 216 194 193 202 177 189 200 228 257 266 293 272 247 257 251 241 228 228 235 264 281 291 305 311 303 285 269 241 200 185 169 158 156 158 153 145 150 153 153 152 152 150 145
189 202 148 173 196 187 175 215 274 319 303 279 257 265 281 251 246 230 217 216 231 238 247 269 296 307 306 289 251 203 183 168 160 155 145 142 143 144 144 144 142 141 140 140
186 169 156 145 165 225 235 190 188 198 262 277 273 256 255 348 4 0 314 254 240 234 228 238 279 310 303 293 269 209 180 165 154 145 138 138 135 135 138 139 141 141 141 139
172 153 152 158 200 197 201 216 210 223 248 266 285 266 328 352 350 342 330 320 304 292 290 324 332 327 311 301 276 201 166 146 135 128 124 127 128 131 134 135 136 137 136 135
176 161 222 218 212 206 197 201 194 210 236 230 266 271 287 306 339 342 328 319 308 295 281 303 315 329 332 316 283 160 137 127 122 119 119 122 125 129 131 131 131 132 130 127
163 168 219 213 209 196 219 222 218 227 261 247 252 266 282 317 318 318 312 305 297 289 280 282 278 234 190 295 268 124 116 114 114 117 120 124 129 130 130 129 128 127 123 118
158 182 228 248 130 185 223 234 229 226 242 253 248 270 285 294 299 304 302 294 285 281 274 264 241 154 141 131 108 104 104 107 112 117 124 129 131 130 126 123 121 118 115 111
157 224 242 267 279 271 254 249 240 236 242 255 269 277 286 295 301 303 302 299 292 277 269 236 167 121 114 104 94 96 99 105 114 120 125 127 125 122 118 116 113 109 106 104
179 248 268 265 259 257 259 254 250 250 251 256 270 278 285 299 304 312 315 309 302 291 275 150 120 113 111 107 104 103 104 109 116 122 123 122 120 117 113 111 108 104 101 99
183 214 258 273 291 291 266 242 231 243 256 264 274 287 307 309 319 334 332 326 317 317 24 111 109 106 103 104 108 109 111 112 116 119 119 119 117 114 110 109 106 104 102 102
191 204 244 290 307 266 222 149 197 255 269 266 279 297 309 313 335 17 3 349 347 21 88 96 96 94 95 99 103 105 108 112 114 114 114 113 111 109 107 106 103 102 104 106
192 192 236 273 284 278 267 170 211 265 278 252 289 308 321 319 297 46 21 24 37 59 78 85 90 95 97 100 106 108 108 109 110 111 111 110 110 108 106 104 102 103 104 100
190 186 223 253 281 274 346 116 156 224 265 202 300 318 332 341 352 17 23 43 54 63 74 83 89 93 96 99 105 109 109 109 108 109 108 106 106 106 104 103 100 96 99 103
175 192 214 232 254 272 304 341 278 282 304 336 338 335 353 40 56 58 59 66 72 76 82 89 94 94 97 102 106 107 106 107 109 108 104 100 98 99 100 97 94 93 89 86
179 186 195 200 225 253 296 332 301 287 320 342 5 35 86 100 93 84 80 82 88 91 94 98 101 100 98 101 108 108 108 109 107 103 99 95 92 93 93 92 86 83 76 58
189 194 191 205 229 263 325 275 10 10 336 2 26 96 119 115 105 97 92 89 91 96 101 104 108 107 105 106 112 111 110 111 107 101 97 95 91 87 88 88 79 65 59 53
198 173 208 261 267 279 25 69 55 44 30 27 61 113 122 118 114 106 99 95 95 96 100 104 105 104 102 101 102 105 107 106 103 99 96 94 93 88 80 77 66 56 57 49
273 165 214 252 269 260 90 68 69 70 70 73 81 96 113 119 117 113 108 103 101 100 97 99 103 103 101 100 97 96 100 102 99 95 91 87 85 88 81 76 73 70 77 79
227 211 216 242 16 41 86 85 92 98 95 98 101 98 101 112 117 114 108 104 103 100 100 100 100 101 100 97 92 87 90 97 99 95 87 82 79 72 67 63 58 73 74 35